This demonstration page uses our WeatherBlox Daily Observations layout. Learn more.

Hourly Observations for March 3, 2016

Temp ( °F °C ) Dew Point ( °F °C ) Humidity (%) Winds ( mph kmh ) Pressure ( in mb ) Visibility ( mi km ) Precip ( " mm )
12:15 am 00:15 Clear 40 4.7 34 0.9 77 77 N 17 28 29.97 1015 10 16.0934 0 0
12:35 am 00:35 Clear 40 4.5 34 1 78 78 N 15 24 29.97 1015 10 16.0934 0 0
12:55 am 00:55 Partly Cloudy 40 4.5 35 1.5 81 81 N 12 19 29.97 1015 10 16.0934 0 0
1:15 am 01:15 Clear 39 4 34 1.3 83 83 NNW 9 15 29.97 1015 10 16.0934 0 0
1:35 am 01:35 Clear 38 3.1 33 0.8 85 85 NW 8 13 30 1016 10 16.0934 0 0
1:55 am 01:55 Clear 37 2.6 33 0.6 87 87 NW 10 17 30.03 1017 10 16.0934 0 0
2:15 am 02:15 Clear 37 2.8 34 0.9 87 87 NW 10 17 30 1016 10 16.0934 0 0
2:35 am 02:35 Clear 36 2.4 33 0.3 86 86 NW 8 13 30.06 1018 10 16.0934 0 0
2:55 am 02:55 Clear 36 2.3 33 0.5 88 88 WNW 9 15 30.06 1018 10 16.0934 0 0
3:15 am 03:15 Clear 37 2.6 33 0.8 88 88 NW 15 24 30.03 1017 10 16.0934 0 0
3:35 am 03:35 Clear 37 2.6 33 0.8 88 88 NW 16 26 30.03 1017 10 16.0934 0 0
3:55 am 03:55 Clear 37 3 33 0.8 86 86 NW 17 28 30.03 1017 10 16.0934 0 0
4:15 am 04:15 Partly Cloudy 37 2.7 32 0.2 84 84 NW 17 28 30.06 1018 10 16.0934 0 0
4:35 am 04:35 Partly Cloudy 37 2.6 32 0.1 84 84 NW 13 20 30.06 1018 10 16.0934 0 0
4:55 am 04:55 Clear 37 2.5 32 0 84 84 NW 10 17 30.06 1018 10 16.0934 0 0
5:15 am 05:15 Partly Cloudy 36 2.2 32 0 86 86 WNW 13 20 30.09 1019 10 16.0934 0 0
5:35 am 05:35 Clear 37 2.5 32 0.1 84 84 NW 14 22 30.09 1019 10 16.0934 0 0
5:55 am 05:55 Clear 36 2.4 32 0 84 84 NW 13 20 30.12 1020 10 16.0934 0 0
6:15 am 06:15 Clear 35 1.6 32 -0.1 89 89 NW 10 17 30.12 1020 10 16.0934 0 0
6:35 am 06:35 Clear 35 1.8 32 0 88 88 NW 10 17 30.15 1021 10 16.0934 0 0
6:55 am 06:55 Clear 35 1.6 32 0 89 89 NNW 10 17 30.15 1021 10 16.0934 0 0
7:15 am 07:15 Sunny 36 2.2 32 0 86 86 NW 12 19 30.15 1021 10 16.0934 0 0
7:35 am 07:35 Sunny 35 1.5 31 -0.3 88 88 NW 8 13 30.15 1021 10 16.0934 0 0
7:55 am 07:55 Sunny 36 2.2 32 0 86 86 NW 12 19 30.15 1021 10 16.0934 0 0
8:15 am 08:15 Sunny 38 3.4 33 0.8 83 83 NW 12 19 30.15 1021 10 16.0934 0 0
8:35 am 08:35 Sunny 40 4.4 34 1.1 79 79 NW 13 20 30.15 1021 10 16.0934 0 0
8:55 am 08:55 Sunny 41 5.1 34 1.1 76 76 NW 13 20 30.15 1021 10 16.0934 0 0
9:15 am 09:15 Sunny 43 6 34 1 71 71 NNW 15 24 30.15 1021 10 16.0934 0 0
9:35 am 09:35 Sunny 44 6.5 33 0.5 66 66 NNW 15 24 30.12 1020 10 16.0934 0 0
9:55 am 09:55 Partly Cloudy 44 6.7 32 0.1 63 63 NNW 15 24 30.12 1020 10 16.0934 0 0
10:15 am 10:15 Partly Cloudy 44 6.6 32 0.1 64 64 NNW 10 17 30.18 1022 10 16.0934 0 0
10:35 am 10:35 Partly Cloudy 46 7.6 32 0.1 59 59 NNW 13 20 30.12 1020 10 16.0934 0 0
10:55 am 10:55 Sunny 47 8.1 32 -0.2 56 56 N 17 28 30.12 1020 10 16.0934 0 0
11:15 am 11:15 Sunny 47 8.5 31 -0.6 53 53 N 15 24 30.15 1021 10 16.0934 0 0
11:35 am 11:35 Sunny 49 9.5 31 -0.4 50 50 N 13 20 30.12 1020 10 16.0934 0 0
11:55 am 11:55 Sunny 49 9.5 31 -0.7 49 49 NNW 9 15 30.12 1020 10 16.0934 0 0
12:15 pm 12:15 Sunny 51 10.3 30 -1 46 46 N 6 9 30.12 1020 10 16.0934 0 0
12:35 pm 12:35 Sunny 51 10.8 30 -1.3 43 43 N 14 22 30.09 1019 10 16.0934 0 0
12:55 pm 12:55 Sunny 52 11.1 29 -1.4 42 42 N 12 19 30.09 1019 10 16.0934 0 0
1:15 pm 13:15 Sunny 53 11.5 29 -1.5 41 41 NNW 10 17 30.06 1018 10 16.0934 0 0
1:35 pm 13:35 Sunny 53 11.5 29 -1.6 40 40 N 10 17 30.06 1018 10 16.0934 0 0
1:55 pm 13:55 Sunny 53 11.9 29 -1.4 40 40 NNW 8 13 30.06 1018 10 16.0934 0 0
2:15 pm 14:15 Sunny 54 12.3 29 -1.6 38 38 N 7 11 30.06 1018 10 16.0934 0 0
2:35 pm 14:35 Sunny 54 12.3 29 -1.6 38 38 NNW 7 11 30.06 1018 10 16.0934 0 0
2:55 pm 14:55 Sunny 55 12.7 28 -2 36 36 NW 8 13 30.06 1018 10 16.0934 0 0
3:15 pm 15:15 Sunny 55 12.8 28 -2 36 36 N 8 13 30.06 1018 10 16.0934 0 0
3:35 pm 15:35 Sunny 56 13.1 28 -2.1 35 35 Calm 30.06 1018 10 16.0934 0 0
3:55 pm 15:55 Sunny 56 13.1 28 -2.2 35 35 N 7 11 30.06 1018 10 16.0934 0 0
4:15 pm 16:15 Sunny 55 12.6 28 -2.4 35 35 NNW 3 6 30 1016 10 16.0934 0 0
4:35 pm 16:35 Sunny 55 13 28 -2.3 35 35 NNE 5 7 30 1016 10 16.0934 0 0
4:55 pm 16:55 Sunny 53 11.9 29 -1.7 39 39 NE 3 6 30.03 1017 10 16.0934 0 0
5:15 pm 17:15 Sunny 54 12.1 28 -2.1 37 37 Calm 30.06 1018 10 16.0934 0 0
5:35 pm 17:35 Sunny 52 11.3 30 -1.3 42 42 E 6 9 30.06 1018 10 16.0934 0 0
5:55 pm 17:55 Sunny 51 10.4 29 -1.4 44 44 E 8 13 30.06 1018 10 16.0934 0 0
6:15 pm 18:15 Sunny 49 9.5 30 -1.1 48 48 ESE 7 11 30.06 1018 10 16.0934 0 0
6:35 pm 18:35 Clear 45 7.2 29 -1.5 54 54 ESE 8 13 30.06 1018 10 16.0934 0 0
6:55 pm 18:55 Clear 43 6.1 29 -1.5 59 59 ESE 8 13 30.12 1020 10 16.0934 0 0
7:15 pm 19:15 Clear 40 4.2 28 -2 64 64 ESE 9 15 30.12 1020 10 16.0934 0 0
7:35 pm 19:35 Clear 40 4.6 30 -1 67 67 ESE 9 15 30.12 1020 10 16.0934 0 0
7:55 pm 19:55 Clear 39 3.7 30 -1.2 71 71 ESE 9 15 30.12 1020 10 16.0934 0 0
8:15 pm 20:15 Clear 37 2.6 29 -1.5 75 75 ESE 10 17 30.15 1021 10 16.0934 0 0
8:35 pm 20:35 Clear 37 2.5 29 -1.4 76 76 ESE 9 15 30.15 1021 10 16.0934 0 0
8:55 pm 20:55 Clear 36 2 30 -1.3 79 79 SE 10 17 30.15 1021 10 16.0934 0 0
9:15 pm 21:15 Clear 35 1.8 29 -1.5 79 79 SE 8 13 30.15 1021 10 16.0934 0 0
9:35 pm 21:35 Clear 35 1.5 29 -1.5 81 81 SE 10 17 30.15 1021 10 16.0934 0 0
9:55 pm 21:55 Clear 35 1.6 29 -1.4 81 81 SE 9 15 30.15 1021 10 16.0934 0 0
10:15 pm 22:15 Clear 34 1.2 29 -1.5 82 82 SE 9 15 30.15 1021 10 16.0934 0 0
10:35 pm 22:35 Clear 34 1.1 29 -1.5 83 83 SSE 9 15 30.15 1021 10 16.0934 0 0
10:55 pm 22:55 Clear 33 0.6 28 -2 83 83 SSE 7 11 30.15 1021 10 16.0934 0 0
11:15 pm 23:15 Clear 32 0.2 29 -1.9 86 86 SSE 8 13 30.18 1022 10 16.0934 0 0
11:35 pm 23:35 Clear 32 0.2 28 -2 85 85 SSE 7 11 30.18 1022 10 16.0934 0 0
11:55 pm 23:55 Clear 32 0.1 28 -2.2 85 85 SSE 7 11 30.18 1022 10 16.0934 0 0

Powered by AerisWeather